Location: Devore Heights
(34.2372°N, 117.4156°W)
Time: 23:44:48
(UTC+00:00)

Transit 4A - Pass Details

Date: 20 September 2024
Orbit: 864 x 978 km, 66.8° (Epoch: 13 October)

Event Time Altitude Azimuth Distance (km) Brightness Sun altitude
Rises 08:47:55 0° 196° (SSW) 3,431 - -51.8°
Reaches altitude 10° 08:50:22 10° 193° (SSW) 2,503 - -51.5°
Maximum altitude 08:56:05 65° 113° (ESE) 965 - -51.0°
Drops below altitude 10° 09:01:56 10° 33° (NNE) 2,570 - -50.3°
Exits shadow 09:02:21 - 32° (NNE) 2,723 10.8 -50.3°
Sets 09:04:29 0° 30° (NNE) 3,530 11.6 -50.1°
